Weather in Vasilikos

Greece     37°43′08″N   20°58′48″E
В апреле 2022 года жителям России запретили посещать сайт meteo.paraplan.net по решению Генеральной прокуратуры. Аудитория сайта уменьшилась в 10 раз. Владельцы сайта не видят смысла в поддержке погодного сервера в таких условиях. Сайт будет закрыт в октябре.
temp.,
°C
wind,
m/s
gust,
m/s
humid.,
%
clouds,
%
prec.,
mm/h
press.,
hPa
HPBL,
m
30 september, fri
fri3000:00+24sw34710 0.0 1013708
03:00+23wsw22700 0.0 1014350
06:00+23ne11730 0.0 1014328
09:00+23ene11755 0.0 1015373
12:00+22nne12775 0.0 1016206
15:00+24n336784 0.0 1016201
18:00+25nne12616 0.0 101675
21:00+25nne236228 0.0 101728
1 october, sat
sat100:00+25ene5661100 0.0 1017116
03:00+24ene226463 0.0 101734
06:00+25nnw686683 0.0 1020144
09:00+25sse576036 0.0 1018116
12:00+25s596699 0.0 1019151
15:00+26s1015726 0.0 1017230
18:00+25s91384100 0.0 1017260
21:00+25s9138761 0.0 1016285
2 october, sun
sun200:00+25ssw6990100 0.0 1016222
03:00+25w5889100 0.1 1015261
06:00+24nnw67811 0.0 1016613
09:00+23nw99670 0.0 1017772
12:00+23nw89590 0.0 10171011
15:00+23nw78660 0.0 10161056
18:00+24nw76700 0.0 1015772
21:00+23nnw56710 0.0 1016472
3 october, mon
mon300:00+23nnw34680 0.0 1016338
03:00+23n34700 0.0 1015440
06:00+23n66720 0.0 1015582
09:00+23n447463 0.0 1015549
12:00+23nne11720 0.0 1015367
15:00+23ssw22700 0.0 1015443
18:00+23ssw54710 0.0 1014639
21:00+22sw337432 0.0 1015669
4 october, tue
tue400:00+22ssw33747 0.0 1015687
03:00+22s346710 0.0 1014911
06:00+23s236578 0.1 10141016
09:00+21e437554 1.2 1015205
12:00+22ese33711 0.6 1016304
15:00+22sse22651 1.0 1016433
18:00+23ssw33670 0.5 1016418
21:00+22sw33690 0.5 1017480